Skip Page Navigation
NASA JPL Caltech
NASA Logo - Jet Propulsion Laboratory + View the NASA Portal
+ Center for Near-Earth Object Studies
JPL Home Earth Solar System Stars & Galaxies Technology
JPL Solar System Dynamics
BODIES ORBITS EPHEMERIDES TOOLS PHYSICAL DATA DISCOVERY FAQ SITE MAP
IMPORTANT: The SSD Announcement email list is now available. Major changes are coming in the near future, including possible hostname and/or URL changes. To be notified of such changes, subscribe to this email list.

Please visit this page for more details.


JPL Small-Body Database Browser
Search: [ help ]  
413115 (2001 VR133)
Classification: Outer Main-belt Asteroid          SPK-ID: 2413115
Ephemeris | Orbit Diagram | Orbital Elements | Mission Design | Physical Parameters | Discovery Circumstances | Close-Approach Data ]

[ show orbit diagram ]
Orbital Elements at Epoch 2458600.5 (2019-Apr-27.0) TDB
Reference: JPL 14 (heliocentric ecliptic J2000)
 Element Value Uncertainty (1-sigma)   Units 
e .112871371870489 7.3658e-08  
a 3.44945740753188 5.831e-08 au
q 3.060112417734936 2.4443e-07 au
i 10.4415150342955 6.3168e-06 deg
node 150.2955372120934 3.8399e-05 deg
peri 251.0113543911802 5.1101e-05 deg
M 256.0621987546676 3.3887e-05 deg
tp 2459276.109319412530
(2021-Mar-02.60931941)
0.00022792 TDB
period 2340.047144295666
6.41
5.9334e-05
1.624e-07
d
yr
n .1538430543493844 3.9009e-09 deg/d
Q 3.838802397328823 6.4891e-08 au
  Orbit Determination Parameters
   # obs. used (total)      115  
   data-arc span      6088 days (16.67 yr)  
   first obs. used      2001-11-11  
   last obs. used      2018-07-13  
   planetary ephem.      DE431  
   SB-pert. ephem.      SB431-N16  
   condition code      0  
   norm. resid. RMS      .72431  
   source      ORB  
   producer      Otto Matic  
   solution date      2019-Jul-14 12:22:40  

Additional Information
 Earth MOID = 2.08809 au 
 Jupiter MOID = 1.68989 au 
 T_jup = 3.100 
[ show covariance matrix ]

Ephemeris | Orbit Diagram | Orbital Elements | Mission Design | Physical Parameters | Discovery Circumstances | Close-Approach Data ]

Physical Parameter Table
Parameter Symbol Value Units Sigma Reference Notes
absolute magnitude H 15.9   n/a MPO455940  

413115 (2001 VR133)          Discovered 2001-Nov-11 by Sloan Digital Sky Survey at Apache Point
Reference: Last Updated: 2014-11-10

[ show close-approach data ]
Alternate Designations
 2001 VR133 = 2010 CU67 
Ephemeris | Orbit Diagram | Orbital Elements | Mission Design | Physical Parameters | Discovery Circumstances | Close-Approach Data ]
ABOUT SSD CREDITS/AWARDS PRIVACY/COPYRIGHT GLOSSARY LINKS
FirstGov
(server date/time)  
NASA Home Page
Site Manager:   Ryan S. Park
Webmaster  Alan B. Chamberlin